Date String (YYYY-MM-DD hh:mm:ss) UTC,Instrument flags,Ambient pressure (hPa),Sample flow (lpm),Bypass flow (lpm),Sample temperature (°C),Ambient temperature (°C),ASC tube jacket temperature (°C),LED temperature (°C),Box temperature (°C),Sample RH (%),Span deviation,Mass concentration (μg/m³),Mass concentration (μg/m³),Mass concentration (μg/m³)
DateTimeUTC,F1_M11,P_M11,Q1_M11,Q2_M11,T1_M11,T2_M11,T3_M11,T4_M11,T5_M11,U1_M11,ZSPAN_M11,X2_M11,X0_M11,X1_M11
2022-02-15 02:00:00,,0821.1,4.99,0.00,25.4,24.5,00.0,34.6,27.0,11.2,0000.0,0008.50,0019.95,0007.56
2022-02-15 02:01:00,,0821.1,5.01,0.00,25.3,24.4,00.0,34.6,27.0,11.5,0000.0,0008.55,0020.17,0007.59
2022-02-15 02:02:00,,0821.1,5.01,0.00,25.3,24.4,00.0,34.6,26.9,10.6,0000.0,0008.57,0020.07,0007.59
2022-02-15 02:03:00,,0821.1,4.99,0.00,25.3,24.4,00.0,34.6,26.9,10.6,0000.0,0008.55,0018.82,0007.58
2022-02-15 02:04:00,,0821.1,4.99,0.00,25.2,24.4,00.0,34.5,26.9,10.9,0000.0,0008.59,0018.85,0007.59
2022-02-15 02:05:00,,0821.0,5.02,0.00,25.2,24.3,00.0,34.5,26.9,10.4,0000.0,0008.64,0018.94,0007.59
2022-02-15 02:06:00,,0821.1,4.99,0.00,25.2,24.3,00.0,34.5,26.9,10.3,0000.0,0008.71,0019.85,0007.59
2022-02-15 02:07:00,,0821.1,5.00,0.00,25.2,24.3,00.0,34.4,26.9,11.0,0000.0,0008.69,0019.76,0007.58
2022-02-15 02:08:00,,0821.0,5.01,0.00,25.2,24.3,00.0,34.4,26.8,11.1,0000.0,0008.69,0019.35,0007.57
2022-02-15 02:09:00,,0821.0,4.99,0.00,25.1,24.3,00.0,34.4,26.8,11.1,0000.0,0008.69,0018.50,0007.56
2022-02-15 02:10:00,,0821.0,5.00,0.00,25.1,24.3,00.0,34.4,26.7,11.1,0000.0,0008.66,0018.35,0007.56
2022-02-15 02:11:00,,0821.0,5.01,0.00,25.1,24.3,00.0,34.3,26.8,11.1,0000.0,0008.62,0017.04,0007.53
2022-02-15 02:12:00,,0821.0,4.99,0.00,25.1,24.3,00.0,34.3,26.8,11.1,0000.0,0008.63,0016.97,0007.52
2022-02-15 02:13:00,,0821.0,4.99,0.00,25.1,24.3,00.0,34.3,26.9,11.0,0000.0,0008.64,0017.76,0007.50
2022-02-15 02:14:00,,0821.1,4.99,0.00,25.1,24.4,00.0,34.3,26.9,10.8,0000.0,0008.66,0019.01,0007.53
2022-02-15 02:15:00,,0821.2,5.00,0.00,25.1,24.4,00.0,34.3,26.9,10.7,0000.0,0008.68,0019.15,0007.54
2022-02-15 02:16:00,,0821.1,5.01,0.00,25.1,24.4,00.0,34.3,26.9,10.6,0000.0,0008.69,0018.70,0007.58
2022-02-15 02:17:00,,0821.1,5.00,0.00,25.1,24.4,00.0,34.3,26.9,10.7,0000.0,0008.70,0018.22,0007.62
2022-02-15 02:18:00,,0821.1,5.00,0.00,25.1,24.4,00.0,34.3,26.9,10.6,0000.0,0008.76,0018.01,0007.68
2022-02-15 02:19:00,,0821.1,5.01,0.00,25.1,24.4,00.0,34.2,26.8,10.4,0000.0,0008.82,0017.48,0007.71
2022-02-15 02:20:00,,0821.1,5.00,0.00,25.1,24.3,00.0,34.2,26.7,10.4,0000.0,0008.87,0017.40,0007.74
2022-02-15 02:21:00,,0821.1,4.99,0.00,25.0,24.2,00.0,34.2,26.6,10.4,0000.0,0008.94,0017.40,0007.77
2022-02-15 02:22:00,,0821.2,5.01,0.00,25.0,24.1,00.0,34.2,26.6,10.5,0000.0,0009.02,0017.55,0007.82
2022-02-15 02:23:00,,0821.2,4.99,0.00,25.0,24.1,00.0,34.2,26.7,10.2,0000.0,0008.98,0017.30,0007.83
2022-02-15 02:24:00,,0821.2,4.98,0.00,25.0,24.1,00.0,34.1,26.6,10.3,0000.0,0008.97,0016.89,0007.84
2022-02-15 02:25:00,,0821.2,5.01,0.00,24.9,24.1,00.0,34.1,26.6,10.3,0000.0,0008.99,0016.24,0007.86
2022-02-15 02:26:00,,0821.2,5.01,0.00,24.9,24.1,00.0,34.1,26.6,10.1,0000.0,0009.00,0017.35,0007.88
2022-02-15 02:27:00,,0821.1,4.99,0.00,24.9,24.0,00.0,34.1,26.6,10.7,0000.0,0009.03,0017.48,0007.89
2022-02-15 02:28:00,,0821.1,5.01,0.00,24.9,24.0,00.0,34.1,26.6,10.8,0000.0,0009.02,0017.68,0007.89
2022-02-15 02:29:00,,0821.1,5.00,0.00,24.9,24.1,00.0,34.0,26.6,10.8,0000.0,0009.02,0018.15,0007.90
2022-02-15 02:30:00,,0821.2,5.00,0.00,24.9,24.1,00.0,34.0,26.6,10.8,0001.3,0009.02,0020.11,0007.91
2022-02-15 02:31:00,,0821.2,5.01,0.00,24.9,24.1,00.0,34.0,26.7,10.9,0001.0,0009.06,0021.84,0007.93
2022-02-15 02:32:00,,0821.2,5.00,0.00,24.9,24.1,00.0,34.0,26.6,10.9,-000.0,0009.07,0021.95,0007.96
2022-02-15 02:33:00,,0821.1,4.99,0.00,24.9,24.2,00.0,34.0,26.7,10.9,-000.4,0009.08,0022.63,0007.99
2022-02-15 02:34:00,,0821.0,5.00,0.00,24.9,24.1,00.0,34.0,26.7,10.9,-000.3,0009.13,0023.82,0008.02
2022-02-15 02:35:00,,0821.0,5.00,0.00,24.9,24.2,00.0,34.0,26.7,11.0,-000.7,0009.26,0025.96,0008.09
2022-02-15 02:36:00,,0821.0,5.01,0.00,24.9,24.2,00.0,34.0,26.6,11.1,-000.6,0009.40,0027.99,0008.21
2022-02-15 02:37:00,,0821.0,4.99,0.00,24.9,24.1,00.0,34.0,26.6,11.1,-001.1,0009.50,0027.13,0008.33
2022-02-15 02:38:00,,0821.0,5.01,0.00,24.8,24.1,00.0,34.0,26.6,10.8,-001.4,0009.59,0027.82,0008.46
2022-02-15 02:39:00,,0820.9,5.00,0.00,24.8,24.1,00.0,33.9,26.5,10.8,-001.0,0009.67,0027.98,0008.56
2022-02-15 02:40:00,,0821.0,5.00,0.00,24.8,24.1,00.0,33.9,26.6,11.0,-001.0,0009.82,0028.79,0008.64
2022-02-15 02:41:00,,0821.0,5.00,0.00,24.8,24.1,00.0,33.9,26.5,10.9,-000.8,0009.93,0027.62,0008.74
2022-02-15 02:42:00,,0821.0,5.00,0.00,24.8,24.0,00.0,33.9,26.5,10.6,-000.5,0009.99,0025.74,0008.82
2022-02-15 02:43:00,,0821.1,5.01,0.00,24.8,23.9,00.0,33.9,26.5,10.7,-000.3,0010.07,0025.99,0008.88
2022-02-15 02:44:00,,0821.0,5.00,0.00,24.7,23.9,00.0,33.9,26.4,11.1,0000.7,0010.14,0025.93,0008.94
2022-02-15 02:45:00,,0821.0,5.00,0.00,24.7,23.9,00.0,33.9,26.4,10.8,0001.7,0010.26,0025.73,0009.01
2022-02-15 02:46:00,,0821.0,5.01,0.00,24.7,23.9,00.0,33.8,26.4,10.3,0002.0,0010.24,0023.59,0009.02
2022-02-15 02:47:00,,0820.9,5.00,0.00,24.7,23.9,00.0,33.8,26.4,11.0,0001.7,0010.19,0020.96,0008.99
2022-02-15 02:48:00,,0821.0,5.00,0.00,24.7,23.9,00.0,33.8,26.4,10.5,0000.0,0010.20,0020.73,0008.96
2022-02-15 02:49:00,,0821.0,5.01,0.00,24.7,23.9,00.0,33.8,26.4,10.6,0000.0,0010.14,0019.93,0008.90
2022-02-15 02:50:00,,0821.0,4.99,0.00,24.7,23.9,00.0,33.8,26.4,10.9,0000.0,0010.14,0019.64,0008.90
2022-02-15 02:51:00,,0821.0,5.02,0.00,24.6,23.9,00.0,33.8,26.3,11.0,0000.0,0010.07,0018.43,0008.88
2022-02-15 02:52:00,,0821.0,4.99,0.00,24.7,23.9,00.0,33.8,26.4,10.6,0000.0,0009.99,0017.90,0008.84
2022-02-15 02:53:00,,0821.0,5.01,0.00,24.7,23.9,00.0,33.8,26.5,10.4,0000.0,0009.98,0017.93,0008.81
2022-02-15 02:54:00,,0821.1,5.00,0.00,24.7,24.0,00.0,33.8,26.5,10.0,0000.0,0010.02,0018.86,0008.79
2022-02-15 02:55:00,,0821.1,4.99,0.00,24.7,24.0,00.0,33.8,26.6,09.7,0000.0,0009.96,0019.60,0008.74
2022-02-15 02:56:00,,0821.0,5.00,0.00,24.7,24.1,00.0,33.8,26.6,09.6,0000.0,0009.86,0018.99,0008.67
2022-02-15 02:57:00,,0821.0,5.01,0.00,24.8,24.1,00.0,33.8,26.6,09.7,0000.0,0009.83,0018.85,0008.65
2022-02-15 02:58:00,,0820.9,5.00,0.00,24.8,24.1,00.0,33.8,26.6,09.8,0000.0,0009.76,0018.86,0008.62
2022-02-15 02:59:00,,0821.0,5.00,0.00,24.8,24.2,00.0,33.8,26.6,09.7,0000.0,0009.69,0018.92,0008.57
